When you browse on this site, cookies collect data to enhance your experience and personalize the content and advertising you see.
Visit our Privacy Policy to learn more. By continuing to use the site, you agree to this use of cookies and data.

Hourly Weather Slavyanogorsk

Today, 26 September, Saturday

Time Temperature Precipitation Wind Pressure Humidity
00:00 +17°C° 0 mm 4 mps 753 mmHg 44%
01:00 +17°C° 0 mm 4 mps 753 mmHg 45%
02:00 +15°C° 0 mm 4 mps 753 mmHg 47%
03:00 +14°C° 0 mm 4 mps 753 mmHg 49%
04:00 +14°C° 0 mm 4 mps 753 mmHg 49%
05:00 +14°C° 0 mm 4 mps 753 mmHg 49%
06:00 +14°C° 0 mm 4 mps 753 mmHg 49%
07:00 +16°C° 0 mm 5 mps 753 mmHg 45%
08:00 +19°C° 0 mm 6 mps 753 mmHg 40%
09:00 +21°C° 0 mm 7 mps 753 mmHg 35%
10:00 +23°C° 0 mm 7 mps 753 mmHg 29%
11:00 +26°C° 0 mm 8 mps 753 mmHg 23%
12:00 +29°C° 0 mm 8 mps 753 mmHg 17%
13:00 +29°C° 0 mm 8 mps 753 mmHg 17%
14:00 +31°C° 0 mm 8 mps 753 mmHg 17%
15:00 +31°C° 0 mm 8 mps 752 mmHg 16%
16:00 +29°C° 0 mm 8 mps 752 mmHg 19%
17:00 +27°C° 0 mm 7 mps 752 mmHg 22%
18:00 +26°C° 0 mm 6 mps 752 mmHg 25%
19:00 +24°C° 0 mm 6 mps 752 mmHg 27%
20:00 +23°C° 0 mm 6 mps 753 mmHg 28%
21:00 +22°C° 0 mm 7 mps 753 mmHg 30%
22:00 +21°C° 0 mm 7 mps 753 mmHg 32%
23:00 +21°C° 0 mm 7 mps 753 mmHg 33%

Tomorrow, 27 September, Sunday

Time Temperature Precipitation Wind Pressure Humidity
00:00 +20°C° 0 mm 7 mps 753 mmHg 35%
01:00 +18°C° 0 mm 7 mps 754 mmHg 37%
02:00 +18°C° 0 mm 7 mps 754 mmHg 39%
03:00 +17°C° 0 mm 7 mps 754 mmHg 41%
04:00 +16°C° 0 mm 7 mps 754 mmHg 43%
05:00 +16°C° 0 mm 7 mps 754 mmHg 46%
06:00 +15°C° 0 mm 7 mps 754 mmHg 48%
07:00 +15°C° 0 mm 8 mps 754 mmHg 47%
08:00 +16°C° 0 mm 8 mps 755 mmHg 47%
09:00 +17°C° 0 mm 8 mps 755 mmHg 46%
10:00 +19°C° 0 mm 9 mps 755 mmHg 42%
11:00 +22°C° 0 mm 9 mps 755 mmHg 38%
12:00 +24°C° 0 mm 9 mps 755 mmHg 34%
13:00 +26°C° 0 mm 9 mps 755 mmHg 32%
14:00 +27°C° 0 mm 9 mps 755 mmHg 31%
15:00 +28°C° 0 mm 9 mps 754 mmHg 30%
16:00 +27°C° 0 mm 8 mps 755 mmHg 32%
17:00 +26°C° 0 mm 7 mps 755 mmHg 33%
18:00 +26°C° 0 mm 6 mps 755 mmHg 35%
19:00 +24°C° 0.1 mm 6 mps 755 mmHg 37%
20:00 +23°C° 0.1 mm 6 mps 755 mmHg 39%
21:00 +23°C° 0.1 mm 7 mps 755 mmHg 41%
22:00 +22°C° 0.1 mm 6 mps 756 mmHg 45%
23:00 +21°C° 0.1 mm 6 mps 756 mmHg 48%

Day after tomorrow, 28 September, Monday

Time Temperature Precipitation Wind Pressure Humidity
00:00 +21°C° 0.1 mm 6 mps 756 mmHg 51%
01:00 +20°C° 0.1 mm 5 mps 756 mmHg 54%
02:00 +19°C° 0.1 mm 5 mps 756 mmHg 57%
03:00 +17°C° 0.1 mm 5 mps 757 mmHg 60%
04:00 +17°C° 0 mm 5 mps 757 mmHg 64%
05:00 +16°C° 0 mm 5 mps 757 mmHg 68%
06:00 +15°C° 0 mm 5 mps 758 mmHg 72%
07:00 +16°C° 0 mm 5 mps 758 mmHg 67%
08:00 +17°C° 0 mm 5 mps 758 mmHg 62%
09:00 +19°C° 0 mm 5 mps 758 mmHg 57%
10:00 +20°C° 0 mm 5 mps 759 mmHg 51%
11:00 +22°C° 0 mm 5 mps 759 mmHg 46%
12:00 +23°C° 0 mm 5 mps 759 mmHg 41%
13:00 +25°C° 0 mm 5 mps 759 mmHg 39%
14:00 +26°C° 0 mm 5 mps 758 mmHg 37%
15:00 +27°C° 0 mm 5 mps 758 mmHg 35%
16:00 +26°C° 0 mm 4 mps 758 mmHg 36%
17:00 +25°C° 0 mm 4 mps 758 mmHg 37%
18:00 +24°C° 0 mm 3 mps 758 mmHg 38%
19:00 +22°C° 0 mm 3 mps 758 mmHg 38%
20:00 +21°C° 0 mm 4 mps 758 mmHg 39%
21:00 +20°C° 0 mm 4 mps 758 mmHg 39%
22:00 +20°C° 0 mm 5 mps 758 mmHg 40%
23:00 +19°C° 0 mm 5 mps 758 mmHg 41%

29 September, Tuesday

Time Temperature Precipitation Wind Pressure Humidity
00:00 +19°C° 0 mm 5 mps 758 mmHg 42%
01:00 +17°C° 0 mm 5 mps 758 mmHg 44%
02:00 +17°C° 0 mm 5 mps 758 mmHg 46%
03:00 +17°C° 0 mm 6 mps 758 mmHg 47%
04:00 +16°C° 0 mm 6 mps 758 mmHg 50%
05:00 +15°C° 0 mm 6 mps 758 mmHg 52%
06:00 +14°C° 0 mm 6 mps 758 mmHg 54%
07:00 +15°C° 0 mm 6 mps 758 mmHg 53%
08:00 +15°C° 0 mm 7 mps 758 mmHg 53%
09:00 +16°C° 0 mm 7 mps 758 mmHg 53%
10:00 +17°C° 0.2 mm 7 mps 758 mmHg 50%
11:00 +18°C° 0.2 mm 8 mps 757 mmHg 48%
12:00 +20°C° 0.2 mm 8 mps 757 mmHg 46%
13:00 +21°C° 0.1 mm 8 mps 757 mmHg 42%
14:00 +21°C° 0.1 mm 8 mps 756 mmHg 38%
15:00 +22°C° 0.1 mm 8 mps 756 mmHg 34%
16:00 +22°C° 0.1 mm 8 mps 755 mmHg 34%
17:00 +21°C° 0.1 mm 8 mps 755 mmHg 35%
18:00 +21°C° 0.1 mm 8 mps 755 mmHg 35%
19:00 +21°C° 0.1 mm 8 mps 755 mmHg 33%
20:00 +21°C° 0.1 mm 8 mps 754 mmHg 31%
21:00 +21°C° 0.1 mm 9 mps 754 mmHg 29%
22:00 +21°C° 0.1 mm 8 mps 754 mmHg 32%
23:00 +20°C° 0.1 mm 8 mps 753 mmHg 34%

30 September, Wednesday

Time Temperature Precipitation Wind Pressure Humidity
00:00 +20°C° 0.1 mm 8 mps 753 mmHg 37%
01:00 +18°C° 0.1 mm 8 mps 753 mmHg 39%
02:00 +18°C° 0.1 mm 8 mps 752 mmHg 41%
03:00 +17°C° 0.1 mm 9 mps 752 mmHg 43%
04:00 +17°C° 0 mm 8 mps 752 mmHg 46%
05:00 +16°C° 0 mm 8 mps 752 mmHg 48%
06:00 +15°C° 0 mm 8 mps 752 mmHg 51%
07:00 +16°C° 0 mm 8 mps 752 mmHg 50%
08:00 +16°C° 0 mm 9 mps 752 mmHg 48%
09:00 +16°C° 0 mm 9 mps 752 mmHg 47%
10:00 +16°C° 0 mm 8 mps 752 mmHg 47%
11:00 +16°C° 0 mm 8 mps 752 mmHg 48%
12:00 +17°C° 0 mm 8 mps 752 mmHg 49%
13:00 +17°C° 0.2 mm 8 mps 752 mmHg 48%
14:00 +17°C° 0.2 mm 7 mps 751 mmHg 48%
15:00 +18°C° 0.2 mm 7 mps 751 mmHg 47%
16:00 +18°C° 0.1 mm 7 mps 751 mmHg 46%
17:00 +19°C° 0.1 mm 6 mps 750 mmHg 44%
18:00 +19°C° 0.1 mm 6 mps 750 mmHg 43%
19:00 +19°C° 0.3 mm 6 mps 750 mmHg 43%
20:00 +19°C° 0.3 mm 6 mps 750 mmHg 44%
21:00 +19°C° 0.3 mm 6 mps 750 mmHg 44%
22:00 +18°C° 0 mm 7 mps 750 mmHg 43%
23:00 +18°C° 0 mm 8 mps 750 mmHg 42%

1 October, Thursday

Time Temperature Precipitation Wind Pressure Humidity
00:00 +18°C° 0 mm 8 mps 750 mmHg 41%
01:00 +16°C° 0.7 mm 8 mps 750 mmHg 50%
02:00 +15°C° 0.7 mm 8 mps 750 mmHg 59%
03:00 +13°C° 0.7 mm 8 mps 750 mmHg 68%
04:00 +12°C° 1.9 mm 8 mps 751 mmHg 72%
05:00 +12°C° 1.9 mm 8 mps 751 mmHg 75%
06:00 +11°C° 1.9 mm 8 mps 751 mmHg 79%
07:00 +11°C° 1.2 mm 7 mps 752 mmHg 77%
08:00 +12°C° 1.2 mm 7 mps 752 mmHg 76%
09:00 +12°C° 1.2 mm 7 mps 752 mmHg 74%
10:00 +12°C° 0.2 mm 7 mps 752 mmHg 73%
11:00 +14°C° 0.2 mm 7 mps 753 mmHg 72%
12:00 +15°C° 0.2 mm 8 mps 753 mmHg 71%
13:00 +14°C° 0.7 mm 7 mps 753 mmHg 73%
14:00 +14°C° 0.7 mm 6 mps 753 mmHg 75%
15:00 +14°C° 0.7 mm 5 mps 753 mmHg 77%
16:00 +14°C° 0.4 mm 4 mps 753 mmHg 78%
17:00 +14°C° 0.4 mm 3 mps 753 mmHg 78%
18:00 +15°C° 0.4 mm 2 mps 753 mmHg 79%
19:00 +14°C° 0.1 mm 3 mps 754 mmHg 76%
20:00 +16°C° 0.1 mm 3 mps 754 mmHg 72%
21:00 +16°C° 0.1 mm 3 mps 754 mmHg 69%
22:00 +15°C° 0 mm 4 mps 754 mmHg 68%
23:00 +15°C° 0 mm 4 mps 754 mmHg 67%
Show more